Flag Weather past 2 weeks in Wailuku, Hawaii, U.S.A.

Now
75 °F

Passing clouds.


Feels Like: 76 °F
Forecast: 70 / 83 °F
Wind: 7 mph from Southwest

Location: Kahului Airport

Current Time: Nov 23, 2014 at 7:43:21 PM

Latest Report: Nov 23, 2014 at 6:54 PM


Visibility: 10 mi

Pressure: 29.93 "Hg

Humidity: 76%

Dew point: 67 °F

Location of WailukuLocation

Historic Weather in Wailuku — Graph

°F

Wailuku temperature yesterday

Maximum temperature yesterday: 88 °F (at 12:54 PM)
Minimum temperature yesterday: 70 °F (at 10:54 PM)
Average temperature yesterday: 78 °F

Past Weeks' High & Low Weather Summary

 TemperatureHumidityPressure
High88 °F (Nov 22, 12:54 PM)93% (Nov 16, 5:54 AM)30.16 "Hg (Nov 16, 5:54 AM)
Low63 °F (Nov 23, 6:54 AM)40% (Nov 22, 11:54 AM)29.83 "Hg (Nov 15, 2:54 PM)
Average76 °F71%30.00 "Hg
* Reported Nov 8 5:54 PM — Nov 23 5:54 PM, Wailuku, Weather by CustomWeather, © 2014

Note: Actual official high and low records may vary slightly from our data, if they occured in-between our weather recording intervals... More about our weather records

Advertising

Wailuku weather history for previous 24 hours

 ConditionsComfort  
Time TempWeatherWind HumidityBarometerVisibility
5:54 PM
Nov 23
79 °FPassing clouds.5 mph65%29.91 "Hg10 mi
4:54 PM82 °FSunny.8 mph56%29.90 "Hg10 mi
3:54 PM85 °FScattered clouds.8 mph48%29.90 "Hg10 mi
2:54 PM86 °FScattered clouds.7 mph48%29.91 "Hg10 mi
1:54 PM85 °FScattered clouds.7 mph50%29.92 "Hg10 mi
12:54 PM85 °FScattered clouds.7 mph51%29.95 "Hg10 mi
11:54 AM85 °FScattered clouds.10 mph51%29.98 "Hg10 mi
10:54 AM84 °FPassing clouds.6 mph53%29.99 "Hg10 mi
9:54 AM81 °FPassing clouds.5 mph56%30.02 "Hg10 mi
8:54 AM77 °FSunny.No wind62%30.02 "Hg10 mi
7:54 AM69 °FSunny.No wind73%30.01 "Hg10 mi
6:54 AM63 °FSunny.No wind84%30.02 "Hg10 mi
5:54 AM65 °FPassing clouds.6 mph78%30.00 "Hg10 mi
4:54 AM65 °FClear.5 mph81%30.00 "Hg10 mi
3:54 AM64 °FClear.5 mph90%30.00 "Hg10 mi
2:54 AM67 °FClear.7 mph79%30.01 "Hg10 mi
1:54 AM68 °FClear.6 mph78%30.03 "Hg10 mi
12:54 AM69 °FClear.No wind76%30.04 "Hg10 mi
11:54 PM
Nov 22
70 °FClear.9 mph79%30.05 "Hg10 mi
10:54 PM70 °FClear.No wind81%30.05 "Hg10 mi
9:54 PM71 °FClear.5 mph81%30.06 "Hg10 mi
8:54 PM74 °FPassing clouds.No wind74%30.06 "Hg10 mi
7:54 PM75 °FClear.3 mph74%30.05 "Hg10 mi
Weather by CustomWeather, © 2014

See weather overviewHow to use our weather pages